Location: ???????
(55.3754°N, 39.3545°E)
Time: 06:56:04
(UTC+00:00)

Cosmos 2026 Rocket - Pass Details

Date: 14 April 2026
Orbit: 939 x 999 km, 82.9° (Epoch: 13 May)

Event Time Altitude Azimuth Distance (km) Brightness Sun altitude
Rises 22:41:19 0° 348° (NNW) 3,651 7.9 -22.9°
Reaches altitude 10° 22:43:50 10° 351° (N) 2,710 7.1 -22.8°
Maximum altitude 22:50:02 72° 76° (ENE) 1,026 4.1 -22.4°
Enters shadow 22:53:29 28° 155° (SSE) 1,736 5.0 -22.2°
